| time (UTC) | temp F | wind direction | speed knots | gust knots | rain 1hr in | rain 24hr in | rain mn in | humidity % | barometer mb |
| 20260505040059 | 57 | 197 | 0.0 | 0.0 | 0.00 | 0.00 | 0.00 | 71 | 1011.1 |
| 20260505034555 | 57 | 197 | 0.0 | 0.0 | 0.00 | 0.00 | 0.00 | 71 | 1011.0 |
| 20260505033055 | 57 | 197 | 0.0 | 0.0 | 0.00 | 0.00 | 0.00 | 71 | 1010.9 |
| 20260505031556 | 58 | 197 | 0.0 | 0.0 | 0.00 | 0.00 | 0.00 | 69 | 1010.8 |
| 20260505030053 | 57 | 197 | 0.0 | 0.9 | 0.00 | 0.00 | 0.00 | 69 | 1011.0 |
| 20260505024607 | 58 | 197 | 0.0 | 0.0 | 0.00 | 0.00 | 0.00 | 69 | 1011.1 |
| 20260505023052 | 57 | 197 | 0.0 | 0.0 | 0.00 | 0.00 | 0.00 | 70 | 1011.0 |
| 20260505021608 | 57 | 197 | 0.0 | 0.0 | 0.00 | 0.00 | 0.00 | 69 | 1010.9 |
| 20260505020050 | 58 | 197 | 0.0 | 0.0 | 0.00 | 0.00 | 0.00 | 66 | 1011.0 |
| 20260505014551 | 59 | 197 | 0.0 | 0.0 | 0.00 | 0.00 | 0.00 | 65 | 1011.0 |
| 20260505013050 | 59 | 197 | 0.0 | 0.0 | 0.00 | 0.00 | 0.00 | 64 | 1011.0 |
| 20260505011555 | 59 | 197 | 0.0 | 0.0 | 0.00 | 0.00 | 0.00 | 63 | 1010.8 |
| 20260505010049 | 60 | 197 | 0.0 | 0.0 | 0.00 | 0.00 | 0.00 | 61 | 1010.5 |
| 20260505004550 | 61 | 197 | 0.0 | 0.0 | 0.00 | 0.00 | 0.00 | 61 | 1010.3 |
| 20260505003048 | 62 | 200 | 0.0 | 0.9 | 0.00 | 0.00 | 0.00 | 59 | 1010.4 |
| 20260505001548 | 62 | 200 | 0.0 | 0.0 | 0.00 | 0.00 | 0.00 | 59 | 1010.3 |
| 20260505000046 | 63 | 202 | 0.0 | 0.0 | 0.00 | 0.00 | 0.00 | 56 | 1010.3 |
| 20260504234547 | 64 | 187 | 0.0 | 0.0 | 0.00 | 0.00 | 0.00 | 55 | 1010.2 |
| 20260504233056 | 65 | 187 | 0.0 | 0.9 | 0.00 | 0.00 | 0.00 | 54 | 1010.2 |
| 20260504231544 | 66 | 149 | 0.0 | 4.3 | 0.00 | 0.00 | 0.00 | 52 | 1010.2 |
| 20260504230043 | 67 | 194 | 2.6 | 6.1 | 0.00 | 0.00 | 0.00 | 49 | 1010.2 |
| 20260504224540 | 68 | 174 | 0.0 | 3.5 | 0.00 | 0.00 | 0.00 | 50 | 1010.2 |
| 20260504223040 | 68 | 208 | 0.0 | 1.7 | 0.00 | 0.00 | 0.00 | 50 | 1010.2 |
| 20260504221538 | 70 | 173 | 0.0 | 3.5 | 0.00 | 0.00 | 0.00 | 46 | 1010.1 |
| 20260504220033 | 71 | 248 | 0.0 | 9.6 | 0.00 | 0.00 | 0.00 | 43 | 1010.0 |
| 20260504214536 | 71 | 200 | 1.7 | 5.2 | 0.00 | 0.00 | 0.00 | 46 | 1010.2 |
| 20260504213031 | 71 | 185 | 0.0 | 4.3 | 0.00 | 0.00 | 0.00 | 44 | 1010.2 |
| 20260504211530 | 72 | 226 | 1.7 | 7.0 | 0.00 | 0.00 | 0.00 | 42 | 1010.2 |
| 20260504210029 | 72 | 219 | 0.9 | 6.1 | 0.00 | 0.00 | 0.00 | 40 | 1010.2 |
| 20260504204531 | 72 | 160 | 0.0 | 7.0 | 0.00 | 0.00 | 0.00 | 40 | 1010.3 |
| 20260504203025 | 72 | 126 | 1.7 | 4.3 | 0.00 | 0.00 | 0.00 | 42 | 1010.4 |
| 20260504201522 | 73 | 211 | 1.7 | 7.0 | 0.00 | 0.00 | 0.00 | 40 | 1010.5 |
| 20260504200020 | 72 | 277 | 0.0 | 7.0 | 0.00 | 0.00 | 0.00 | 39 | 1010.8 |
| 20260504194516 | 72 | 186 | 2.6 | 8.7 | 0.00 | 0.00 | 0.00 | 39 | 1011.0 |
| 20260504193014 | 73 | 198 | 1.7 | 6.1 | 0.00 | 0.00 | 0.00 | 39 | 1011.4 |
| 20260504191514 | 73 | 200 | 2.6 | 7.8 | 0.00 | 0.00 | 0.00 | 38 | 1011.5 |
| 20260504190007 | 73 | 210 | 1.7 | 6.1 | 0.00 | 0.00 | 0.00 | 40 | 1011.9 |
| 20260504184506 | 72 | 213 | 0.0 | 7.8 | 0.00 | 0.00 | 0.00 | 37 | 1012.1 |
| 20260504183003 | 72 | 298 | 3.5 | 7.0 | 0.00 | 0.00 | 0.00 | 37 | 1012.2 |
| 20260504181606 | 73 | 224 | 1.7 | 5.2 | 0.00 | 0.00 | 0.00 | 43 | 1012.3 |
| 20260504180056 | 71 | 247 | 0.0 | 7.0 | 0.00 | 0.00 | 0.00 | 42 | 1012.4 |
| 20260504174552 | 71 | 293 | 0.9 | 5.2 | 0.00 | 0.00 | 0.00 | 38 | 1012.6 |
| 20260504173049 | 69 | 229 | 0.9 | 7.8 | 0.00 | 0.00 | 0.00 | 37 | 1012.8 |
| 20260504171546 | 70 | 133 | 0.0 | 7.8 | 0.00 | 0.00 | 0.00 | 41 | 1013.0 |
| 20260504081528 | 35 | 139 | 0.0 | 0.0 | 0.00 | 0.00 | 0.00 | 92 | 1016.0 |
| 20260504044551 | 37 | 138 | 0.0 | 0.0 | 0.00 | 0.00 | 0.00 | 88 | 1016.4 |
| 20260504043057 | 36 | 138 | 0.0 | 0.0 | 0.00 | 0.00 | 0.00 | 88 | 1016.3 |
| 20260504041546 | 37 | 138 | 0.0 | 0.0 | 0.00 | 0.00 | 0.00 | 87 | 1016.3 |